MEASAT-3

Last updated on Jan. 29, 2020, 4:37 a.m. UTC

1 29648U 06056A   20028.87654501 -.00000243  00000-0  00000-0 0  9994
2 29648   0.0320 140.4534 0000360 134.7426 259.4415  1.00272638 27090
UTC
Height (km)
Latitude
Longitude
Inclination
Orbital Period
UTC large
Height (km)
Speed (km/s)
/
Latitude / Longitude
Inclination (degrees)
Orbital Period (minutes)
Azimuth
Elevation
Range (km)
Doppler Factor
iOS Compass Heading
iOS Angle

Next 30 passes for location: Hong Kong

Rise time Rise Azimuth (degrees) Set time Set Azimuth (degrees) Duration Max altitude (degrees)

No matching passes for this satellites